User: anonymous   Login
Location: Unspecified
(0.0000°N, 0.0000°E)
Time: 02:52:19
(UTC+01:00)
Language:

CZ-4B R/B - Orbit

View from above orbital plane
View from above orbital plane
View from above satellite
View from above satellite

Ground track
Ground track

The orbit data is extracted from the following two-line orbital elements,

1 33410U 08053C   14304.45623248  .00003009  00000-0  24078-3 0  9720
2 33410 097.6015 277.3871 0129313 169.4038 190.9956 14.94551482327190
Epoch (UTC): 31 October 2014 10:56:58
Eccentricity: 0.0129313
inclination: 97.6015°
perigee height: 494 km
apogee height: 674 km
right ascension of ascending node: 277.3871°
argument of perigee: 169.4038°
revolutions per day: 14.94551482
mean anomaly at epoch: 190.9956°
orbit number at epoch: 32719

The dashed part of the orbit path shows where the satellite is in the earth's shadow,  

DLR